Weather in Enem

Russia / Republic of Adygea     44°55′35″N   38°54′38″E
temp.,
°C
wind,
m/s
gust,
m/s
humid.,
%
clouds,
%
prec.,
mm/h
press.,
hPa
HPBL,
m
5 march, fri
fri500:00+3sw412700 0.0 1021642
03:00+3sw312710 0.0 1020572
06:00+3sw311730 0.0 1019425
09:00+6sw514610 0.0 1018791
12:00+10sw8134349 0.0 10181009
15:00+11sw8144454 0.0 10171043
18:00+8ssw715520 0.0 1017824
21:00+8ssw818510 0.0 1018685
6 march, sat
sat600:00+8ssw6185443 0.0 1017737
03:00+9ssw9194766 0.0 1017771
06:00+8ssw8195058 0.0 1016763
09:00+10ssw10185547 0.0 1016763
12:00+12ssw101553100 0.0 1015930
15:00+13sw91558100 0.0 10131273
18:00+10w6974100 0.1 1015730
21:00+3nw81193100 2.4 1018616
7 march, sun
sun700:00+2nnw61071100 1.7 10221049
03:000nnw485671 1.7 1025710
06:00−1nnw25570 0.0 1026703
09:000n24450 0.0 1027861
12:00+3nnw34370 0.0 10251417
15:00+4wnw333911 0.0 10241638
18:00+3wnw344667 0.0 1023868
21:00+2wsw355433 0.0 1024603
8 march, mon
mon800:00+1sw475515 0.0 1023389
03:00+1sw38567 0.0 1022421
06:00+1ssw49550 0.0 1021444
09:00+3sw695423 0.0 1020976
12:00+6wsw684881 0.0 10191504
15:00+7wsw574690 0.0 10171495
18:00+4wsw5858100 0.0 1017978
21:00+2sw4970100 0.0 1018461
9 march, tue
tue900:00+2ssw377436 0.0 1018319
03:00+2sw267758 0.0 1017343
06:00+2sw3789100 0.0 1017335
09:00+4sw5984100 0.1 1018687
12:00+2wnw4794100 2.5 1018364
15:00+2wnw3596100 7.3 1019281
18:00+1sw2393100 1.7 1020259
21:000nw257578 1.7 1023320